Weather in Tulata

Russia / Altai Krai     51°18′38″N   83°25′29″E
temp.,
°C
wind,
m/s
gust,
m/s
humid.,
%
clouds,
%
prec.,
mm/h
press.,
hPa
HPBL,
m
13 april, tue
tue1301:00+2s22898 0.0 103013
04:00+1ssw228875 0.0 103013
07:000s228974 0.0 103013
10:00+6wnw117694 0.0 1029224
13:00+5nnw4471100 0.0 1029721
16:00+2nnw2393100 1.3 1032525
19:00−1n1299100 1.6 1035279
22:00−1nne1298100 0.1 1036118
14 april, wed
wed1401:00−1ne128167 0.1 103756
04:00−4sse11935 0.0 103712
07:00−4sse11895 0.0 103812
10:00+1nne11625 0.0 1036340
13:00+5nnw21500 0.0 1033526
16:00+6nnw215526 0.0 1032543
19:00+3nw1177100 0.0 103133
22:00+1s1185100 0.0 103212
15 april, thu
thu1501:000s118698 0.0 103111
04:00−1s21836 0.0 103011
07:00−1s21805 0.0 102912
10:00+6nne11565 0.0 1027308
13:00+9nnw21474 0.0 1025651
16:00+10nnw22490 0.0 1024775
19:00+8nnw22655 0.0 1023165
22:00+3sse11815 0.0 102410
16 april, fri
fri1601:00+2sse11834 0.0 102310
04:00+2sse11830 0.0 102210
07:00+2sse11815 0.0 102210
10:00+8nnw11630 0.0 1019332
13:00+12nnw24480 0.0 10171190
16:00+14wnw34340 0.0 10151668
19:00+12nw22491 0.0 101455
22:00+7s11694 0.0 101511
17 april, sat
sat1701:00+6s227142 0.0 101311
04:00+6sse2268100 0.0 101118
07:00+6sse3360100 0.0 100839
10:00+13sse2644100 0.0 1004411
13:00+14ssw51434100 0.0 10031991
16:00+13sw6145130 0.1 10041930
19:00+11s356699 0.9 1005303
22:00+7sse33827 1.7 100754